     2              OBSERVATION DATA    GPS                 RINEX VERSION / TYPE
teqc 1997Sep10 19970910 19:06:22UTC                         PGM / RUN BY / DATE
                                                            COMMENT
BIT 2 OF LLI FLAGS DATA COLLECTED UNDER A-S CONDITION       COMMENT
BIT 2 OF LLI FLAGS DATA COLLECTED UNDER A-S CONDITION       COMMENT
Original Marker Name: unknown                               COMMENT
Campaign Name: Southern California GPS Survey March - A     COMMENT
4-Character Station Name: WIDE                              COMMENT
6-Character Antenna Code: TI4100                            COMMENT
Vertical Measurement Point: PAE                             COMMENT
Vertical Offset to Rinex Ref. Point: 0.0000                 COMMENT
Radial Measurement Point: RRP                               COMMENT
Radial Offset to Rinex Ref. Point: 0.0000                   COMMENT
Antenna Height from Field Measurement: 1.3751 m             COMMENT
Original XYZ: 0.0000 0.0000 0.0000                          COMMENT
New XYZ position is based on association with SCEC monument COMMENT
E1D0U3V0+0011. Position of that monument is believed to be  COMMENT
valid to within 1 m horizontally; vertical accuracy         COMMENT
should be no worse than 3-times this value.                 COMMENT
                                                            COMMENT
Revised Rinex header created by UCSD GPS archive for        COMMENT
GSAC on 14-Apr-1999 (1999:104) 01:11:52 GMT                 COMMENT
For assistance contact dagnew@ucsd.edu or hjohnson@ucsd.edu COMMENT
                                                            COMMENT
WIDE                                                        MARKER NAME
unknown NATIONAL GEODETIC SURVEY                            OBSERVER / AGENCY
001 TI 4100 GSI TI4100                                      REC # / TYPE / VERS
2003 TI 4100                                                ANT # / TYPE
 -2356149.0000 -4745123.0000  3540396.0000                  APPROX POSITION XYZ
        1.3751        0.0000        0.0000                  ANTENNA: DELTA H/E/N
     1     1     0                                          WAVELENGTH FACT L1/2
     6    L1    L2    P1    P2    D1    D2                  # / TYPES OF OBSERV
     0                                                      INTERVAL
  1988     3    25     3    16   41.000000                  TIME OF FIRST OBS
  1988     3    25     8    12   50.000000                  TIME OF LAST OBS
     0                                                      # OF SATELLITES
                                                            END OF HEADER
 88  3 25  3 16 41.1600000  0  3G 6G 9G11
   6822336.443 9 -12171713.833 8  17300232.778    17300234.074        1723.083
      1330.893
    175050.395 9   -145040.180 8  19860241.884    19860245.664        3028.366
      2365.662
    170705.397 8    -85742.056 8  18492510.674    18492515.447        3100.422
      2406.630
 88  3 25  3 40 32.0800000  0  3G 6G 9G11
   4630165.663 9 -13879897.823 8  16883075.756    16883076.829        1313.010
      1005.334
  -4160636.775 9  -3523493.637 8  19035185.330    19035186.834        3001.484
      2353.645
  -3806709.484 9  -3185023.649 7  17735632.693    17735636.766        2441.525
      1894.626
 88  3 25  3 41  2.0800000  0  3G 6G 9G11
   4590766.346 9 -13910598.575 9  16875576.552    16875580.310        1317.627
      1013.984
  -4251017.036 8  -3593919.747 8  19017985.793    19017987.982        3016.835
      2357.945
  -3879632.596 8  -3241846.812 8  17721755.185    17721758.179        2423.678
      1886.039
 88  3 25  3 41 32.0800000  0  3G 6G 9G11
   4551672.497 8 -13941061.303 9  16868138.182    16868139.827        1283.680
      1022.789
  -4341348.599 9  -3664307.920 8  19000796.152    19000799.800        3009.737
      2333.164
  -3952093.503 8  -3298309.833 7  17707966.556    17707969.764        2419.005
      1882.982
 88  3 25  3 42  2.0800000  0  3G 6G 9G11
   4512886.410 9 -13971284.214 8  16860757.809    16860760.481        1291.064
      1007.528
  -4431629.663 8  -3734656.739 8  18983615.217    18983619.611        3009.921
      2348.357
  -4024090.764 9  -3354411.558 8  17694266.601    17694269.137        2399.181
      1868.168
 88  3 25  3 42 32.0800000  0  3G 6G 9G11
   4474410.039 9 -14001265.771 8  16853434.929    16853438.053        1293.209
       983.934
  -4521858.746 9  -3804965.045 9  18966445.262    18966449.554        3011.795
      2349.121
  -4095622.782 8  -3410150.751 8  17680653.125    17680656.902        2390.170
      1861.824
 88  3 25  3 43  2.0800000  0  3G 6G 9G11
   4436245.713 9 -14031004.203 8  16846173.280    16846174.958        1259.621
       988.420
  -4612033.708 9  -3875231.193 7  18949286.890    18949289.562        3009.594
      2321.339
  -4166687.665 8  -3465525.952 7  17667130.202    17667134.185        2370.346
      1830.525
 88  3 25  3 43 32.0800000  0  3G 6G 9G11
   4398395.629 9 -14060497.776 8  16838970.761    16838971.948        1258.090
       982.573
  -4702152.839 9  -3945453.826 8  18932137.150    18932140.655        3017.568
      2336.861
  -4237283.570 9  -3520535.698 8  17653696.956    17653699.908        2357.355
      1816.681
 88  3 25  3 44  2.0800000  0  3G 6G 9G11
   4360862.138 9 -14089744.646 8  16831828.617    16831829.152        1245.977
       968.356
  -4792214.075 8  -4015631.341 9  18914998.448    18915002.511        2998.183
      2334.631
  -4307408.832 9  -3575178.725 8  17640351.145    17640355.659        2332.834
      1813.108
 88  3 25  3 44 32.0800000  0  3G 6G 9G11
   4323647.624 9 -14118742.949 6  16824746.989    16824748.599        1243.545
       957.072
  -4882215.608 9  -4085762.343 8  18897872.122    18897875.384        2997.513
      2339.738
  -4377061.717 8  -3629453.671 7  17627098.232    17627100.240        2309.118
      1808.814
 88  3 25  3 45  2.0800000  0  3G 6G 9G11
   4286754.467 9 -14147490.854 8  16817726.161    16817727.724        1229.997
       966.386
  -4972155.339 9  -4155845.190 8  18880756.451    18880759.072        3001.707
      2344.890
  -4446240.390 9  -3683359.099 8  17613932.987    17613936.670        2308.879
      1795.697
 88  3 25  3 45 32.0800000  0  3G 6G 9G11
   4250185.056 8 -14175986.492 7  16810767.498    16810768.942        1219.183
       952.753
  -5062031.026 9  -4225878.118 9  18863654.160    18863656.820        3005.559
      2338.986
  -4514942.973 9  -3736893.552 8  17600858.898    17600862.932        2265.562
      1781.243
 88  3 25  3 46  2.0800000  0  3G 6G 9G11
   4213941.581 9 -14204228.144 7  16803870.164    16803871.794        1209.782
       944.843
  -5151840.846 9  -4295859.739 8  18846563.688    18846567.181        2981.835
      2333.978
  -4583167.804 9  -3790055.719 7  17587876.154    17587880.525        2265.036
      1758.358
 88  3 25  3 46 32.0800000  0  3G 6G 9G11
   4178026.796 9 -14232213.687 8  16797035.545    16797037.406        1182.860
       936.542
  -5241582.583 9  -4365788.299 9  18829487.665    18829489.424        2995.838
      2324.384
  -4650913.117 9  -3842844.239 8  17574985.738    17574987.919        2252.006
      1763.472
 88  3 25  3 47  2.0800000  0  3G 6G 9G11
   4142442.516 9 -14259941.683 8  16790264.760    16790265.268        1168.762
       917.347
  -5331254.243 9  -4435662.271 9  18812423.118    18812426.065        2990.344
      2327.907
  -4718177.506 8  -3895258.012 8  17562185.834    17562188.917        2228.051
      1730.794
 88  3 25  3 47 32.0800000  0  3G 6G 9G11
   4107191.710 8 -14287409.837 8  16783556.596    16783558.375        1155.931
       917.030
  -5420853.372 9  -4505479.717 8  18795372.350    18795375.383        2982.114
      2324.328
  -4784958.783 8  -3947295.343 7  17549477.391    17549481.142        2205.252
      1730.110
 88  3 25  3 48  2.0800000  0  3G 6G 9G11
   4072276.068 9 -14314616.826 9  16776912.258    16776913.880        1156.377
       905.939
  -5510378.401 9  -4575239.425 9  18778336.320    18778339.182        2989.889
      2328.709
  -4851256.014 8  -3998955.497 8  17536861.100    17536863.674        2212.756
      1712.525
 88  3 25  3 48 32.0800000  0  3G 6G 9G11
 -11444343.283 3 -14213838.176 1                                      1138.132
       487.888
 -11453613.414 1  -4466326.796 8                                      3012.178
      2326.317
 -11410043.141 1  -3882713.627 7                                      2215.045
      1712.420
